This is the latest recevied weather packets stored in our database for station/object KD8YBJ. If no packets are shown the sender has not sent any weather packets the latest 10 day(s).
| Time | Temp. | Humidity | Pressure | Rain* | Wind** | Luminosity | Snow |
|---|---|---|---|---|---|---|---|
| 1778103616 | 11.11° C | 43% | 1013.2 hPa | 0 mm | - | 199 W/m² | - |
| 1778103016 | 11.67° C | 43% | 1012.9 hPa | 0 mm | - | 352 W/m² | - |
| 1778100016 | 11.67° C | 43% | 1012.9 hPa | 0 mm | - | 638 W/m² | - |
| 1778094618 | 12.22° C | 42% | 1012.9 hPa | 0 mm | - | 827 W/m² | - |
| 1778094038 | 11.67° C | 41% | 1012.9 hPa | 0 mm | - | 852 W/m² | - |
| 1778088618 | 11.11° C | 43% | 1013.3 hPa | 0 mm | - | 898 W/m² | - |
| 1778086219 | 11.11° C | 45% | 1013.2 hPa | 0 mm | - | 895 W/m² | - |
| 1778083821 | 10.56° C | 45% | 1013.1 hPa | 0 mm | - | 609 W/m² | - |
| 1778079016 | 10.56° C | 43% | 1013.1 hPa | 0 mm | - | 163 W/m² | - |
| 1778075418 | 8.33° C | 54% | 1012.7 hPa | 0 mm | - | 75 W/m² | - |
| 1778074818 | 7.78° C | 57% | 1012.1 hPa | 0 mm | - | 235 W/m² | - |
| 1778073619 | 7.22° C | 65% | 1012.1 hPa | 0 mm | - | 85 W/m² | - |
| 1778069417 | 5° C | 76% | 1012.1 hPa | 0 mm | - | 40 W/m² | - |
| 1778058623 | 1.11° C | 88% | 1011 hPa | 0 mm | - | 0 W/m² | - |
| 1778055017 | 2.22° C | 88% | 1010.8 hPa | 0 mm | - | 0 W/m² | - |
| 1778053817 | 2.22° C | 88% | 1010.8 hPa | 0 mm | - | 0 W/m² | - |
| 1778053217 | 2.22° C | 88% | 1010.9 hPa | 0 mm | - | 0 W/m² | - |
| 1778049015 | 3.33° C | 86% | 1011 hPa | 0 mm | - | 0 W/m² | - |
| 1778047816 | 3.89° C | 86% | 1011 hPa | 0 mm | - | 0 W/m² | - |
| 1778040018 | 5° C | 78% | 1010.6 hPa | 0 mm | - | 0 W/m² | - |
| 1778037616 | 5.56° C | 75% | 1010.6 hPa | 0 mm | - | 0 W/m² | - |
| 1778037016 | 5.56° C | 75% | 1010.6 hPa | 0 mm | - | 0 W/m² | - |
| 1778035816 | 5.56° C | 74% | 1010.3 hPa | 0 mm | - | 0 W/m² | - |
| 1778033416 | 5.56° C | 72% | 1009.9 hPa | 0 mm | - | 0 W/m² | - |
| 1778032817 | 6.11° C | 68% | 1009.8 hPa | 0 mm | - | 0 W/m² | - |
* Rain latest hour (hover to see other rain measurements)
** Current wind speed in m/s (hover to see current wind gust speed)